Regional Weather Roundup
Issued by NWS Glasgow, MT

Home | Current Version | Previous Version | Text Only | Print | Product List | Glossary On
Versions: 1 2 3 4 5 6 7 8 9 10 11 12 13 14 15 16 17 18 19 20 21 22 23 24 25 26 27 28 29 30 31 32 33 34 35 36 37 38 39 40 41 42 43 44 45 46 47 48 49 50
000
ASUS45 KGGW 010415
RWRGGW
HOURLY WEATHER ROUNDUP FOR NORTHEAST MONTANA
NATIONAL WEATHER SERVICE GLASGOW MONTANA
900 PM MST SAT FEB 28 2015

NOTE: "FAIR" INDICATES FEW OR NO CLOUDS BELOW 12,000 FEET WITH NO
SIGNIFICANT WEATHER AND/OR OBSTRUCTIONS TO VISISBILITY.

NORTHEAST MONTANA


CITY           SKY/WX    TMP DP  RH WIND       PRES   REMARKS
GLASGOW        CLOUDY    19  10  68 W8        30.14S
PLENTYWOOD       N/A     11   3  70 S3          N/A
WOLF POINT     CLOUDY    20  10  65 W9        30.15S
JORDAN           N/A     15  10  80 W8        30.16R
WINNETT          N/A     14   9  80 SW8G17      N/A
SIDNEY         PTCLDY    12   5  73 SW6       30.18S
GLENDIVE       CLEAR      9   1  72 W7        30.15S
MALTA            N/A     22  15  75 W7          N/A
SCOBEY           N/A     13  -2  51 W5        30.07S

FORT PECK REPORTS


CITY           SKY/WX    TMP DP  RH WIND       PRES   REMARKS
FORT PECK        N/A     20  11  68 W13         N/A
THE PINES        N/A     20   9  62 W5          N/A

SOUTHEAST MONTANA


CITY           SKY/WX    TMP DP  RH WIND       PRES   REMARKS
BILLINGS       PTCLDY    17   7  64 N8        30.14R
MILES CITY     CLEAR     11   6  81 W7        30.18R
BAKER          CLEAR      9   2  73 W8        30.14R
LIVINGSTON     PTCLDY    16   3  56 W6        30.11R

CENTRAL MONTANA


CITY           SKY/WX    TMP DP  RH WIND       PRES   REMARKS
HAVRE          CLOUDY    23  14  68 SW14      30.17R
LEWISTOWN      CLOUDY    11   4  73 SW10      30.13S WCI  -3
GREAT FALLS    CLEAR     13   7  77 SW9       30.18R
CUT BANK       CLEAR     10   6  84 W9        30.16R
HELENA         NOT AVBL
BUTTE          CLEAR     14   7  73 S5        30.09R
BOZEMAN        MOCLDY    18   8  65 NW9       30.14R

WESTERN MONTANA


CITY           SKY/WX    TMP DP  RH WIND       PRES   REMARKS
MISSOULA       CLEAR     23  10  57 W5        30.18R
KALISPELL      NOT AVBL

NORTH DAKOTA


CITY           SKY/WX    TMP DP  RH WIND       PRES   REMARKS
WILLISTON      PTCLDY     2  -3  80 SW3       30.15S
DICKINSON      CLEAR      5  -1  76 W8        30.11S
MINOT          CLEAR      2  -4  76 SW10      30.13S WCI -14
BISMARCK       CLEAR     10   2  69 W3        30.21R

SOUTHERN SASKATCHEWAN


CITY           SKY/WX    TMP DP  RH WIND       PRES   REMARKS
REGINA         FLURRIES  10   7  85 W15       30.06R WCI  -6
ESTEVAN        PTCLDY    -2  -8  78 SW10      30.09S WCI -19
SWIFT CURRENT  LGT SNOW  14  12  92 W13       30.08R WCI   0




USA.gov is the U.S. government's official web portal to all federal, state and local government web resources and services.